Weather Roundup
Issued by NWS Springfield, MO

Home | Current Version | Previous Version | Text Only | Print | Product List | Glossary On
Versions: 1 2 3 4 5 6 7 8 9 10 11 12 13 14 15 16 17 18 19 20 21 22 23 24 25 26 27 28 29 30 31 32 33 34 35 36 37 38 39 40 41 42 43 44 45 46 47 48 49 50
000
NZUS99 KSGF 190259
HRRSGF

HOURLY WEATHER
NATIONAL WEATHER SERVICE SPRINGFIELD MO
900 PM CST THU DEC 18 2014

......SGF CWA......

CITY           SKY/WX    TMP DP  RH WIND       PRES   REMARKS
SPRINGFIELD    CLOUDY    38  36  92 NE3       30.20R
JOPLIN         CLOUDY    37  36  96 N3        30.23R FOG
WEST PLAINS    FOG       36  35  96 E3        30.22S VSB 1/2
ROLLA          FOG       33  32  96 E6        30.22R VSB 3/4 WCI  28
OSAGE BEACH    CLOUDY    34  32  93 NE3       30.23S VSB 1/2
BRANSON        FOG       37  37 100 CALM      30.22R VSB 1

......SURROUNDING SGF CWA......

CITY           SKY/WX    TMP DP  RH WIND       PRES   REMARKS
CHANUTE        CLOUDY    34  33  96 N5        30.23S FOG     WCI  30
PARSONS        CLOUDY    36  34  92 N3        30.25R
COFFEYVILLE    CLOUDY    36  34  92 N6        30.24R WCI  31
EMPORIA        CLOUDY    31  29  92 N5        30.23R WCI  26
SILOAM SPRINGS CLOUDY    39  34  81 NE3       30.21S
HARRISON AR    CLOUDY    38  37  97 E3        30.20R
NEAR YELLVILLE CLOUDY    37  34  87 CALM      30.22S

......KANSAS AND MISSOURI......

CITY           SKY/WX    TMP DP  RH WIND       PRES   REMARKS
KANSAS CTY INT CLOUDY    31  29  92 E6        30.25R FOG     WCI  25
DOWNTOWN KC    CLOUDY    33  30  88 E6        30.26R WCI  28
COLUMBIA       CLOUDY    32  30  92 E6        30.25S WCI  26
SEDALIA        CLOUDY    33  32  96 NE6       30.25R FOG     WCI  28
ST JOSEPH      CLOUDY    31  28  89 E5        30.26S WCI  26
ST LOUIS       CLOUDY    34  25  69 NE5       30.28S WCI  30
SPIRIT OF STL  CLOUDY    33  27  78 NE3       30.27S
KIRKSVILLE     CLOUDY    29  27  92 E5        30.26S WCI  24
WICHITA        CLOUDY    32  29  88 E5        30.23R WCI  27
TOPEKA         CLOUDY    33  29  85 CALM      30.26R
OLATHE         CLOUDY    32  30  92 E3        30.23R FOG

......TENNESSEE......

CITY           SKY/WX    TMP DP  RH WIND       PRES   REMARKS
MEMPHIS        CLOUDY    45  36  70 NE6       30.23S
NASHVILLE      CLOUDY    37  32  82 N5        30.24S WCI  33

......ARKANSAS.......

CITY           SKY/WX    TMP DP  RH WIND       PRES   REMARKS
FAYETTEVILLE   CLOUDY    40  38  93 NE3       30.20R FOG
FT SMITH       CLOUDY    42  38  85 E3        30.22S
LITTLE ROCK    CLOUDY    43  38  82 N5        30.25R FOG

......OKLAHOMA.......

CITY           SKY/WX    TMP DP  RH WIND       PRES   REMARKS
TULSA          CLOUDY    40  38  93 N7        30.22S
PONCA CITY     CLOUDY    38  33  82 N6        30.23R WCI  33
MCALESTER      CLOUDY    43  40  89 NE5       30.21S
OKLAHOMA CITY  CLOUDY    41  38  89 NE8       30.20R FOG

......IOWA............

CITY           SKY/WX    TMP DP  RH WIND       PRES   REMARKS
DES MOINES     CLOUDY    28  22  78 SE6       30.26S WCI  22
QUAD CITIES    CLEAR     25  17  72 CALM      30.29R

......ILLINOIS........

CITY           SKY/WX    TMP DP  RH WIND       PRES   REMARKS
QUINCY         CLOUDY    28  24  85 NE7       30.27S WCI  21
CHICAGO        CLOUDY    28  20  71 NW6       30.25R WCI  22



USA.gov is the U.S. government's official web portal to all federal, state and local government web resources and services.